Regional Weather Roundup
Issued by NWS

Home | Current Version | Previous Version | Text Only | Print | Product List | Glossary On
Versions: 1 2 3 4 5 6 7 8 9 10 11 12 13 14 15 16 17 18 19 20 21 22 23 24 25 26 27 28 29 30 31 32 33 34 35 36 37 38 39 40 41 42 43 44 45 46 47 48 49 50
000
ASUS42 KFFC 290210
RWRGA
WEATHER ROUNDUP FOR GEORGIA
NATIONAL WEATHER SERVICE PEACHTREE CITY GA
1000 PM EDT SUN MAY 28 2017

NOTE: "FAIR" INDICATES FEW OR NO CLOUDS BELOW 12,000 FEET WITH NO
SIGNIFICANT WEATHER AND/OR OBSTRUCTIONS TO VISIBILITY.

* = USE WITH CAUTION. THE STATIONS MARKED WITH AN ASTERISK MAY NOT
REPORT WEATHER SUCH AS PRECIPITATION, FOG, OR THUNDER AND ARE NOT
QUALITY CONTROLLED BY NWS.

THE REMARK "TC" DENOTES TEMPERATURE READING IN DEGREES CELSIUS.

GAZ001>058-290300-
NORTH GEORGIA

CITY           SKY/WX    TMP DP  RH WIND       PRES   REMARKS
ATLANTA        CLOUDY    75  66  73 W7        29.93S
ATHENS         CLEAR     75  67  76 W5        29.91F
CHAMBLEE       CLEAR     73  64  73 CALM      29.93S
PEACHTREE CITY CLOUDY    70  68  93 CALM      29.94S
ROME           CLOUDY    72  68  87 W5        29.91S
WEST ATLANTA   CLEAR     74  67  78 CALM      29.92S
GAINESVILLE    CLEAR     73  65  75 W5        29.95F
CARTERSVILLE   PTCLDY    69  69 100 CALM      29.92S


CITY           SKY/WX    TMP DP  RH WIND       PRES   REMARKS
DALTON*        CLOUDY    68  68 100 CALM      29.91R
MARIETTA       MOCLDY    74  65  74 W5        29.93S
KENNESAW*      PTCLDY    73  64  73 CALM      29.93F
CANTON*        PTCLDY    72  61  68 CALM      29.95S
$$

GAZ059>098-102>109-290300-
CENTRAL GEORGIA

CITY           SKY/WX    TMP DP  RH WIND       PRES   REMARKS
AUGUSTA-BUSH   PTCLDY    81  70  69 W6        29.88R
AUGUSTA-DANIEL PTCLDY    84  66  54 W6        29.90R
COLUMBUS       CLEAR     80  67  64 W5        29.93R
MACON          CLOUDY    77  67  71 W3        29.92R
ROBINS AFB     CLOUDY    82  68  62 W8        29.91R


CITY           SKY/WX    TMP DP  RH WIND       PRES   REMARKS
LAGRANGE*      CLEAR     71  71 100 CALM      29.94S
SYLVANIA*      PTCLDY    78  72  80 CALM      29.90S
MILLEDGEVILLE* CLOUDY    79  70  73 W3        29.91R
$$

GAZ099>101-110>166-290300-
SOUTH GEORGIA

CITY           SKY/WX    TMP DP  RH WIND       PRES   REMARKS
SAVANNAH       CLEAR     81  67  62 CALM      29.91R
VALDOSTA       MOCLDY    80  74  81 VRB5      29.95R
ALMA           PTCLDY    80  68  66 SW3       29.91R
ST SIMONS      CLEAR     83  75  77 S3        29.91R HX  90
FT STEWART     CLEAR     79  68  69 CALM      29.89R
ALBANY         MOCLDY    80  71  74 SW9       29.96R
HUNTER AFB     CLEAR     81  72  74 CALM      29.89R
MOODY AFB      MOCLDY    83  73  71 SW9       29.94R
BRUNSWICK      CLEAR     82  70  65 SW3       29.92R


CITY           SKY/WX    TMP DP  RH WIND       PRES   REMARKS
BAINBRIDGE*    CLOUDY    79  72  78 SW8       29.95S
MOULTRIE*      MOCLDY    82  72  69 W12       29.97R
VIDALIA*       PTCLDY    81  70  69 W3        29.92R
WAYCROSS*      PTCLDY    83  72  70 SW8       29.93R
DOUGLAS*       CLOUDY    81  66  61 SW8       29.94R
$$



USA.gov is the U.S. government's official web portal to all federal, state and local government web resources and services.